This demonstration page uses our WeatherBlox Daily Observations layout. Learn more.

Hourly Observations for January 10, 2020

Temp ( °F °C ) Dew Point ( °F °C ) Humidity (%) Winds ( mph kmh ) Pressure ( in mb ) Visibility ( mi km ) Precip ( " mm )
12:15 am 00:15 Cloudy 45 7 45 7 100 100 WNW 10 17 30.21 1023 5 8.0467 N/A
12:36 am 00:36 Cloudy 43 6 43 6 100 100 SSE 5 7 30.16 1021 5 8.0467 N/A
12:55 am 00:55 Cloudy 43 6 43 6 100 100 SSE 7 11 30.15 1021 5 8.0467 N/A
1:15 am 01:15 Cloudy 43 6 43 6 100 100 W 8 13 30.2 1023 10 16.0934 N/A
1:35 am 01:35 Cloudy 43 6 43 6 100 100 S 6 9 30.19 1022 3 4.82802 N/A
1:55 am 01:55 Cloudy 43 6 43 6 100 100 S 7 11 30.18 1022 5 8.0467 N/A
2:15 am 02:15 Cloudy 43 6 43 6 100 100 S 7 11 30.19 1022 5 8.0467 N/A
2:36 am 02:36 Cloudy 43 6 43 6 100 100 SSE 7 11 30.19 1022 7 11.26538 N/A
2:55 am 02:55 Cloudy 43 6 43 6 100 100 S 8 13 30.19 1022 5 8.0467 N/A
3:16 am 03:16 Cloudy 45 7 45 7 100 100 S 9 15 30.19 1022 7 11.26538 N/A
3:36 am 03:36 Cloudy 45 7 45 7 100 100 S 10 17 30.18 1022 5 8.0467 N/A
3:55 am 03:55 Cloudy 46 8 46 8 100 100 S 14 22 30.18 1022 7 11.26538 N/A
4:16 am 04:16 Cloudy 46 8 46 8 100 100 S 13 20 30.16 1021 7 11.26538 N/A
4:35 am 04:35 Cloudy 46 8 46 8 100 100 S 10 17 30.16 1021 5 8.0467 N/A
4:55 am 04:55 Cloudy 46 8 46 8 100 100 S 10 17 30.16 1021 4 6.43736 N/A
5:15 am 05:15 Cloudy 46 8 46 8 100 100 S 10 17 30.15 1021 7 11.26538 N/A
5:36 am 05:36 Cloudy 46 8 46 8 100 100 S 12 19 30.16 1021 7 11.26538 N/A
5:56 am 05:56 Cloudy 46 8 46 8 100 100 S 9 15 30.16 1021 7 11.26538 N/A
6:16 am 06:16 Cloudy 46 8 46 8 100 100 S 13 20 30.16 1021 7 11.26538 N/A
6:36 am 06:36 Cloudy 46 8 46 8 100 100 S 13 20 30.16 1021 7 11.26538 N/A
6:55 am 06:55 Cloudy 48 9 48 9 100 100 S 15 24 30.15 1021 7 11.26538 N/A
7:16 am 07:16 undefined 48 9 48 9 100 100 S 15 24 30.14 1021 7 11.26538 N/A
7:36 am 07:36 Cloudy 48 9 48 9 100 100 S 15 24 30.14 1021 10 16.0934 N/A
7:55 am 07:55 Cloudy 48 9 48 9 100 100 S 15 24 30.14 1021 5 8.0467 N/A
8:16 am 08:16 Cloudy 48 9 48 9 100 100 SSW 13 20 30.15 1021 7 11.26538 N/A
8:35 am 08:35 Cloudy 48 9 48 9 100 100 SSW 12 19 30.17 1022 5 8.0467 N/A
8:55 am 08:55 Cloudy 48 9 48 9 100 100 S 13 20 30.18 1022 7 11.26538 N/A
9:16 am 09:16 Cloudy 48 9 48 9 100 100 S 13 20 30.18 1022 4 6.43736 N/A
9:35 am 09:35 Cloudy 48 9 48 9 100 100 S 10 17 30.18 1022 10 16.0934 N/A
9:55 am 09:55 Cloudy 50 10 50 10 100 100 S 12 19 30.18 1022 2.5 4.02335 N/A
10:16 am 10:16 Cloudy 50 10 50 10 100 100 S 9 15 30.18 1022 10 16.0934 N/A
10:35 am 10:35 Cloudy 50 10 50 10 100 100 S 9 15 30.18 1022 10 16.0934 N/A
10:55 am 10:55 Cloudy 50 10 50 10 100 100 S 8 13 30.19 1022 5 8.0467 N/A
11:15 am 11:15 Cloudy 50 10 50 10 100 100 W 8 13 30.2 1023 4 6.43736 N/A
11:35 am 11:35 Cloudy 50 10 50 10 100 100 SSW 3 6 30.2 1023 4 6.43736 N/A
11:56 am 11:56 Cloudy 50 10 50 10 100 100 SSW 5 7 30.2 1023 5 8.0467 N/A
12:16 pm 12:16 Cloudy 50 10 50 10 100 100 S 6 9 30.18 1022 5 8.0467 N/A
12:35 pm 12:35 Cloudy 52 11 52 11 100 100 S 6 9 30.17 1022 4 6.43736 N/A
12:56 pm 12:56 Cloudy 52 11 52 11 100 100 S 7 11 30.16 1021 3 4.82802 N/A
1:15 pm 13:15 Cloudy 52 11 52 11 100 100 S 9 15 30.15 1021 10 16.0934 N/A
1:35 pm 13:35 Cloudy 52 11 52 11 100 100 S 9 15 30.13 1020 10 16.0934 N/A
1:55 pm 13:55 Cloudy 52 11 52 11 100 100 S 8 13 30.13 1020 10 16.0934 N/A
2:15 pm 14:15 Cloudy 52 11 52 11 100 100 SSW 7 11 30.14 1021 7 11.26538 N/A
2:36 pm 14:36 Cloudy 52 11 52 11 100 100 SSW 6 9 30.13 1020 4 6.43736 N/A
2:56 pm 14:56 Cloudy 52 11 52 11 100 100 S 8 13 30.12 1020 5 8.0467 N/A
3:15 pm 15:15 Cloudy 52 11 52 11 100 100 S 9 15 30.11 1020 7 11.26538 N/A
3:35 pm 15:35 Cloudy 52 11 52 11 100 100 S 8 13 30.12 1020 7 11.26538 N/A
3:56 pm 15:56 Cloudy 52 11 52 11 100 100 S 8 13 30.11 1020 7 11.26538 N/A
4:16 pm 16:16 Cloudy 54 12 54 12 100 100 SSE 9 15 30.1 1019 4 6.43736 N/A
4:36 pm 16:36 Cloudy 52 11 52 11 100 100 S 7 11 30.11 1020 7 11.26538 N/A
4:55 pm 16:55 Cloudy 54 12 54 12 100 100 SSE 9 15 30.1 1019 10 16.0934 N/A
5:15 pm 17:15 Cloudy 54 12 54 12 100 100 SSE 10 17 30.09 1019 3 4.82802 N/A
5:35 pm 17:35 Cloudy 54 12 54 12 100 100 S 9 15 30.09 1019 4 6.43736 N/A
5:55 pm 17:55 Cloudy 54 12 54 12 100 100 S 9 15 30.09 1019 7 11.26538 N/A
6:15 pm 18:15 Cloudy 54 12 54 12 100 100 S 10 17 30.09 1019 10 16.0934 N/A
6:36 pm 18:36 Cloudy 54 12 54 12 100 100 S 10 17 30.09 1019 7 11.26538 N/A
6:55 pm 18:55 Cloudy 54 12 54 12 100 100 S 13 20 30.08 1019 10 16.0934 N/A
7:15 pm 19:15 Cloudy 54 12 54 12 100 100 S 14 22 30.07 1018 7 11.26538 N/A
7:35 pm 19:35 Cloudy 54 12 54 12 100 100 S 13 20 30.05 1018 10 16.0934 N/A
7:55 pm 19:55 Cloudy 54 12 54 12 100 100 SSE 13 20 30.04 1017 10 16.0934 N/A
8:15 pm 20:15 Cloudy 54 12 54 12 100 100 SSE 13 20 30.04 1017 10 16.0934 N/A
8:35 pm 20:35 Cloudy 54 12 54 12 100 100 S 12 19 30.04 1017 10 16.0934 N/A
8:56 pm 20:56 Cloudy 54 12 54 12 100 100 SSE 14 22 30.03 1017 10 16.0934 N/A
9:16 pm 21:16 Cloudy 55 13 55 13 100 100 SSE 15 24 30.01 1016 10 16.0934 N/A
9:36 pm 21:36 Cloudy 55 13 55 13 100 100 S 17 28 30 1016 10 16.0934 N/A
9:55 pm 21:55 Cloudy 55 13 55 13 100 100 S 16 26 30.01 1016 10 16.0934 N/A
10:15 pm 22:15 Cloudy 55 13 55 13 100 100 S 16 26 30 1016 5 8.0467 N/A
10:35 pm 22:35 Cloudy 55 13 55 13 100 100 SSE 15 24 29.98 1015 10 16.0934 N/A
10:55 pm 22:55 Cloudy 55 13 55 13 100 100 S 15 24 29.98 1015 10 16.0934 N/A
11:15 pm 23:15 Cloudy 55 13 55 13 100 100 S 15 24 29.97 1015 10 16.0934 N/A
11:36 pm 23:36 Cloudy 55 13 55 13 100 100 S 15 24 29.95 1014 10 16.0934 N/A
11:56 pm 23:56 Cloudy 55 13 55 13 100 100 S 15 24 29.94 1014 10 16.0934 N/A

Powered by AerisWeather